Location: Carrières
(48.9495°N, 2.0407°E)
Time: 08:16:00
(UTC+00:00)

BlueWalker 3 - Visible Passes

Search period start: 28 February 2024 00:00
Search period end: 09 March 2024 00:00
Orbit: 485 x 500 km, 53.2° (Epoch: 27 February)

Date Brightness Start Highest point End Pass type
(mag) Time Alt. Az. Time Alt. Az. Time Alt. Az.
28 Feb 2.3 18:47:20 10° WNW 18:51:03 51° NNE 18:53:00 24° E visible
28 Feb 4.0 20:25:42 10° WNW 20:27:29 25° W 20:27:29 25° W visible
29 Feb 2.3 18:23:29 10° WNW 18:27:11 50° NNE 18:30:13 14° E visible
29 Feb 2.9 20:01:50 10° WNW 20:04:42 44° W 20:04:42 44° W visible
01 Mar 2.1 19:37:57 10° WNW 19:41:40 57° SSW 19:41:57 55° S visible
02 Mar 2.2 19:14:03 10° WNW 19:17:47 59° SSW 19:19:16 32° SE visible
03 Mar 2.2 18:50:08 10° WNW 18:53:52 61° SSW 18:56:38 17° SE visible
03 Mar 4.7 20:29:53 10° WSW 20:31:08 12° SW 20:31:08 12° SW visible
04 Mar 2.3 18:26:13 10° WNW 18:29:58 63° SSW 18:33:41 10° SE visible
04 Mar 4.5 20:05:51 10° WSW 20:07:37 13° SW 20:08:37 12° SSW visible
05 Mar 4.6 19:41:49 10° W 19:43:42 13° SW 19:45:35 10° SSW visible
06 Mar 4.6 19:17:47 10° W 19:19:46 14° SW 19:21:45 10° SSW visible
07 Mar 4.7 18:53:44 10° W 18:55:49 14° SW 18:57:54 10° SSW visible
08 Mar 4.7 18:29:41 10° W 18:31:51 15° SW 18:34:02 10° SSW visible
